Location: Unspecified
(0.0000°N, 0.0000°E)
Time: 18:15:52
(UTC+00:00)

Vanguard 1 - Pass Details

Date: 10 October 2020
Orbit: 650 x 3833 km, 34.3° (Epoch: 26 October)

Event Time Altitude Azimuth Distance (km) Brightness Sun altitude
Rises 09:49:19 0° 218° (SW) 6,326 14.1 59.9°
Reaches altitude 10° 09:54:40 10° 204° (SSW) 5,799 14.1 61.2°
Maximum altitude 10:09:18 25° 155° (SSE) 5,527 14.5 64.7°
Drops below altitude 10° 10:26:26 10° 107° (ESE) 6,900 14.9 68.8°
Sets 10:33:34 0° 95° (E) 7,736 14.9 70.5°
